Location: Kra?nica
(53.4833°N, 14.6167°E)
Time: 06:53:06
(UTC+00:00)

Lacrosse 5 rocket - Pass Details

Date: 23 May 2024
Orbit: 445 x 572 km, 57.0° (Epoch: 15 June)

Event Time Altitude Azimuth Distance (km) Brightness Sun altitude
Rises 01:19:44 0° 294° (WNW) 2,733 4.8 -9.8°
Reaches altitude 10° 01:22:16 10° 281° (WNW) 1,815 3.7 -9.6°
Maximum altitude 01:25:38 25° 226° (SW) 1,101 2.3 -9.3°
Drops below altitude 10° 01:28:54 10° 170° (S) 1,742 3.5 -9.1°
Sets 01:31:17 0° 157° (SSE) 2,598 4.5 -8.9°
